Date,TemperatureHighF,TemperatureAvgF,TemperatureLowF,DewpointHighF,DewpointAvgF,DewpointLowF,HumidityHigh,HumidityAvg,HumidityLow,PressureMaxIn,PressureMinIn,WindSpeedMaxMPH,WindSpeedAvgMPH,GustSpeedMaxMPH,PrecipitationSumIn
2013-2-1,26.4,18.5,7.9,20.0,4.7,-2.7,85,55,37,30.37,29.78,9,3,25,0.00
2013-2-2,27.9,15.9,3.7,19.2,7.5,-1.1,84,70,43,30.37,29.99,9,2,19,0.00
2013-2-3,32.5,26.2,22.1,24.3,17.7,7.0,90,72,47,29.99,29.78,10,2,24,0.00
2013-2-4,35.6,26.4,19.9,25.0,13.7,6.2,90,60,41,30.05,29.85,7,2,22,0.02
2013-2-5,36.8,29.7,23.8,34.2,27.6,21.0,94,92,89,29.89,29.81,4,0,7,0.00
2013-2-6,35.3,27.0,24.1,24.3,21.4,20.0,84,79,61,30.31,30.18,5,0,11,0.00
2013-2-7,34.1,33.8,33.1,23.7,22.6,22.1,68,63,62,30.22,30.15,3,1,9,0.00
2013-2-8,36.8,32.5,30.6,31.3,25.8,21.0,84,77,60,30.01,29.77,10,2,24,0.00
2013-2-10,40.6,38.6,13.6,15.7,14.3,10.5,87,38,31,30.42,30.15,12,9,20,0.00
2013-2-11,65.3,45.5,34.1,45.3,36.8,30.1,91,75,33,30.06,29.67,14,5,30,0.00
2013-2-12,53.5,44.6,26.9,22.1,20.1,15.6,76,42,23,29.94,29.87,5,3,14,0.00
2013-2-13,41.1,40.3,37.0,30.1,24.5,22.4,76,54,47,29.71,29.63,6,4,13,0.00
2013-2-14,44.5,42.5,37.8,28.0,26.0,24.6,65,52,47,29.97,29.93,8,5,17,0.00
2013-2-15,49.1,48.5,47.9,28.4,28.0,27.6,46,45,44,29.94,29.93,2,2,7,0.00
2013-2-16,31.8,26.9,22.4,19.4,10.7,7.3,66,50,44,29.94,29.86,4,2,12,0.00
2013-2-17,24.7,20.7,18.1,10.2,4.8,-0.3,64,50,38,30.22,29.86,10,4,28,0.00
2013-2-18,45.2,26.0,8.6,20.0,8.4,1.7,77,51,22,30.36,30.04,8,2,15,0.00
2013-2-19,52.2,38.6,27.2,34.7,24.5,13.8,84,58,38,30.04,29.64,15,7,28,0.02
2013-2-20,32.8,26.1,19.4,15.0,8.9,4.6,54,48,37,30.17,29.83,12,6,33,0.00
2013-2-21,33.2,22.7,19.2,13.6,9.3,4.4,76,57,41,30.33,30.13,7,3,20,0.00
2013-2-22,32.8,27.4,19.9,25.4,19.6,13.6,79,72,57,30.34,30.10,7,1,14,0.00
2013-2-23,51.1,36.1,27.8,35.4,28.3,24.2,86,74,52,30.10,29.80,6,1,11,0.00
2013-2-24,45.7,33.4,24.7,29.7,22.2,13.2,93,66,32,30.11,29.80,11,2,25,0.00
2013-2-25,42.2,28.1,20.2,19.8,16.2,14.0,83,63,35,30.21,30.11,5,1,13,0.00
2013-2-26,35.5,28.5,19.9,34.0,24.6,14.8,95,85,58,30.17,29.63,7,2,16,0.52
2013-2-27,48.2,38.5,32.1,39.2,31.3,27.5,97,78,46,29.67,29.57,12,2,26,0.01
2013-2-28,37.8,35.4,32.8,30.9,23.9,20.5,88,63,51,29.73,29.61,9,3,26,0.00